Home   Weather   41°58'N, 87°56'W   Past weeks
Flag for USA

Past Weather in 41°58'N, 87°56'W, USA — Yesterday and Last 2 Weeks

Now
49 °F

Light rain. More clouds than sun.


Feels Like: 49 °F
Forecast: 44 / 36 °F
Wind: No wind

Location: Chicago Midway Airport

Current Time: Mar 24, 2019 at 4:46:21 pm

Latest Report: Mar 24, 2019 at 3:53 pm


Visibility: 10 mi

Pressure: 30.07 "Hg

Humidity: 66%

Dew Point: 38 °F

Location of 41°58'N, 87°56'WLocation

Past Weather in 41°58'N, 87°56'W — Graph

°F

41°58'N, 87°56'W Temperature Yesterday

Maximum temperature yesterday: 52 °F (at 3:53 pm)
Minimum temperature yesterday: 27 °F (at 5:53 am)
Average temperature yesterday: 40 °F

High & Low Weather Summary for the Past Weeks

 TemperatureHumidityPressure
High63 °F (Mar 14, 2:53 pm)100% (Mar 15, 5:53 am)30.44 "Hg (Mar 15, 5:53 am)
Low26 °F (Mar 12, 5:53 am)31% (Mar 17, 2:53 pm)29.27 "Hg (Mar 14, 2:16 pm)
Average41 °F68%30.09 "Hg
* Reported Mar 10 5:53 am — Mar 24 2:53 pm, 41°58'N, 87°56'W. Weather by CustomWeather, © 2019

Note: Actual official high and low records may vary slightly from our data, if they occured in-between our weather recording intervals... More about our weather records

Advertising

41°58'N, 87°56'W Weather History for the Previous 24 Hours

Scroll right to see more
 ConditionsComfort  
Time TempWeatherWind HumidityBarometerVisibility
2:53 pm
Sun, Mar 24
51 °FLight rain. Mostly cloudy.No wind52%30.06 "Hg10 mi
1:53 pm50 °FOvercast.5 mph63%30.09 "Hg10 mi
1:20 pm49 °FCloudy.No wind69%30.08 "Hg10 mi
12:53 pm49 °FMostly cloudy.5 mph74%30.11 "Hg10 mi
12:24 pm48 °FMostly cloudy.5 mph80%30.11 "Hg10 mi
11:53 am48 °FLight rain. More clouds than sun.5 mph80%30.14 "Hg10 mi
11:44 am48 °FLight rain. More clouds than sun.7 mph77%30.13 "Hg10 mi
11:06 am48 °FMostly cloudy.5 mph71%30.13 "Hg10 mi
9:53 am46 °FOvercast.3 mph68%30.14 "Hg10 mi
8:53 am46 °FMostly cloudy.3 mph61%30.13 "Hg10 mi
7:53 am45 °FMostly cloudy.6 mph56%30.14 "Hg10 mi
6:53 am44 °FOvercast.3 mph55%30.14 "Hg10 mi
5:53 am45 °FOvercast.7 mph48%30.12 "Hg10 mi
4:53 am45 °FPassing clouds.5 mph44%30.14 "Hg10 mi
3:53 am44 °FPassing clouds.5 mph43%30.16 "Hg10 mi
2:53 am44 °FPassing clouds.5 mph43%30.17 "Hg10 mi
1:53 am44 °FPassing clouds.6 mph45%30.19 "Hg10 mi
12:53 am45 °FPassing clouds.7 mph45%30.21 "Hg10 mi
11:53 pm
Sat, Mar 23
45 °FPartly cloudy.6 mph49%30.22 "Hg10 mi
10:53 pm44 °FOvercast.5 mph51%30.22 "Hg10 mi
9:53 pm44 °FOvercast.6 mph51%30.24 "Hg10 mi
8:53 pm44 °FPartly cloudy.7 mph49%30.25 "Hg10 mi
7:53 pm46 °FPartly cloudy.7 mph44%30.26 "Hg10 mi
6:53 pm50 °FPartly sunny.8 mph38%30.26 "Hg10 mi
5:53 pm51 °FScattered clouds.9 mph36%30.25 "Hg10 mi
4:53 pm52 °FPassing clouds.8 mph34%30.27 "Hg10 mi
Weather by CustomWeather, © 2019

See weather overview